Skip Navigation Links
NOAA logo - Click to go to the NOAA homepage
NOAA's National Weather Service
Alaska Aviation Weather Unit
  NWS logo - Click to go to the NWS homepage
Left Navbar Graphic     17 AKDT = 01 GMT

   
NOAA is celebrating 200 years of science, service, and stewardship. Visit the NOAA 200th celebration Web site to learn more.
USA.gov is the U.S. Government's official Web portal to all Federal, state and local government Web resources and services.
Facebook
NWS on Facebook

Important Change Regarding the AAWU Web Presence

 

Over the last several months, the AAWU has been working to navigate its webpages to a nationally supported server. Security, as well as other needs, have necessitated the change.  We have been given an extension for the site changeover while we diligently work at addressing feedback received. As of July 14, 2017, aawu.arh.noaa.gov will be discontinued. The new AAWU web address is weather.gov/aawu. It is now live and will run in-parallel with the old site until it is discontinued on July 14, 2017. Please continue to send any feedback or questions regarding the new webpages to nws.ar.aawu.webauthors@noaa.gov.  Thank you for your patience during this time of transition.
AAWU Home :: Display TAF Add Bookmark
METAR PATL 171955Z AUTO 04007KT 010V070 10SM OVC026 M02/M06 A2947=

METAR PATL 172055Z AUTO VRB04KT 10SM OVC025 M02/M06 A2947=

METAR PATL 172155Z AUTO VRB04KT 10SM OVC028 M01/M06 A2946=

METAR PATL 172255Z AUTO VRB06KT 10SM BKN030 M01/M07 A2945=

PATL 172313Z AUTO 08007KT 10SM BKN029 M01/M07 A2945=

METAR PATL 172355Z AUTO 08007KT 040V120 10SM BKN030 M01/M06 A2944=

METAR PATL 180055Z AUTO VRB06KT 10SM BKN029 M01/M06 A2944=

PATL 180123Z AUTO 07002KT 10SM SCT029 M01/M07 A2944=


NOAA's National Weather Service
Alaska Aviation Weather Unit
6930 Sand Lake Road
Anchorage, AK 99502-1845
Disclaimer
Credits
Glossary
Privacy Policy
About Us
Career Opportunities
Contact AAWU Internet Services Site last modified: April, 17th 2012